Location: Sommers-Bausch Observatory
(40.0037°N, 105.2635°W)
Time: 17:47:26
(UTC-06:00)

Daily predictions for brighter satellites

Satellite Brightness Start Highest point End
(mag) Time Altitude Azimuth Time Altitude Azimuth Time Altitude Azimuth
Cosmos 2278 4.2 20:02:14 10° S 20:07:25 38° ESE 20:12:38 10° NE
Cosmos 2123 Rocket 4.4 20:04:27 10° N 20:10:17 42° ENE 20:16:06 10° SSE
Cosmos 1892 Rocket 3.8 20:06:24 10° N 20:10:48 54° E 20:15:11 10° SSE
NOSS 2-1 (D) 3.4 20:07:03 10° SW 20:10:53 85° NW 20:15:13 10° NNE
ALOS 2.5 20:06:45 10° SSE 20:11:16 52° ENE 20:15:49 10° N
Cosmos 1025 Rocket 3.1 20:07:28 10° N 20:11:51 89° W 20:16:11 10° S
NOSS 2-1 (C) 3.4 20:08:03 10° SW 20:11:54 86° WNW 20:16:15 10° NNE
ERS-1 Rocket 4.4 20:08:50 10° ESE 20:12:29 21° ENE 20:16:08 10° NNE
H-2A R/B 3.3 20:10:40 10° SE 20:14:18 41° ENE 20:18:01 10° N
Cosmos 1455 Rocket 3.4 20:11:31 10° SSE 20:15:36 42° E 20:19:43 10° NNE
Resurs 1-3 3.8 20:12:06 10° S 20:16:29 80° WSW 20:20:54 10° NNW
Meteor 2-14 Rocket 4.5 20:10:31 10° S 20:16:34 63° E 20:22:38 10° NNE
Meteor 1-29 3.9 20:14:14 10° N 20:17:37 54° WNW 20:21:00 10° SSW
Cosmos 1461 3.7 20:13:57 10° NNW 20:17:39 32° NE 20:21:13 10° ESE
Cosmos 2369 4.0 20:15:23 10° S 20:20:42 44° ESE 20:26:05 10° NE
Meteor 1-23 Rocket 4.3 20:19:36 10° N 20:25:15 89° W 20:30:58 10° S
Cosmos 1633 3.8 20:22:01 10° SSW 20:25:33 47° W 20:29:06 10° N
Cosmos 1980 Rocket 3.9 20:26:52 11° ESE 20:27:42 11° E 20:29:17 10° E
NOSS 2-1 (E) 3.9 20:24:04 10° SW 20:27:56 63° NW 20:32:23 10° NNE
Cosmos 1939 Rocket 4.4 20:27:38 12° ESE 20:30:13 20° ENE 20:33:16 10° NNE
CZ-2D R/B 3.2 20:27:19 10° SSE 20:31:10 76° ENE 20:35:03 10° N
Resurs 01 Rocket 3.2 20:29:39 10° SSW 20:33:46 38° W 20:37:56 10° NNW
Lacrosse 5 3.6 20:31:29 10° NNW 20:35:24 22° NNE 20:39:18 10° ENE
Hubble Space Telescope 3.0 20:33:43 10° SW 20:35:46 13° S 20:37:49 10° SSE
Cosmos 1934 Rocket 4.0 20:34:47 10° S 20:40:54 87° W 20:47:09 10° N
SPOT 5 4.4 20:41:22 14° E 20:43:41 19° ENE 20:47:07 10° NNE
USA 186 1.6 20:42:15 10° SSE 20:45:23 87° W 20:48:22 10° NNW
Tiangong 1 1.7 20:43:01 10° W 20:46:02 50° N 20:48:23 15° ENE
Cosmos 1346 Rocket 2.8 20:42:27 10° N 20:46:25 85° WSW 20:50:23 10° S
OTV 4 0.8 20:44:01 10° W 20:46:53 47° S 20:48:16 25° SE
Cosmos 1544 Rocket 4.4 20:45:05 10° SSW 20:49:21 55° W 20:53:42 10° N
Cosmos 1500 3.8 20:53:26 21° SE 20:55:16 33° E 20:58:41 10° NNE
Cosmos 2227 Rocket 2.2 20:49:36 10° NNW 20:55:18 83° ENE 21:00:12 14° SSE
FENGYUN 3A 4.1 20:50:27 10° S 20:55:44 62° W 21:01:03 10° NNW
RESURS DK-1 4.1 20:54:13 10° N 20:57:08 18° NE 20:58:17 16° ENE
Cosmos 2208 Rocket 4.5 20:53:02 10° SSW 20:58:19 67° WNW 21:03:42 10° NNE
CZ-4 DEB 2.7 20:59:28 29° SE 21:00:51 59° ENE 21:03:57 10° N
Cosmos 1656 3.7 20:56:01 10° S 21:01:29 54° ESE 21:06:54 10° NNE
CZ-3C R/B 4.2 20:15:04 10° WSW 21:02:29 34° SSW 21:09:52 15° SSE
Cosmos 2298 Rocket 4.3 21:01:07 10° N 21:06:16 49° ENE 21:08:57 26° SE
Cosmos 2082 3.7 21:03:09 10° NNW 21:08:47 82° WSW 21:13:11 17° SSE
NOSS 3-4 (A) 4.1 21:01:58 10° NW 21:08:58 66° WSW 21:15:30 14° SSE
NOSS 3-4 (C) 4.1 21:02:05 10° NW 21:09:06 67° WSW 21:15:35 14° SSE
Cosmos 1340 4.4 21:07:27 10° NNE 21:09:50 18° ENE 21:09:50 18° ENE
Cosmos 2297 Rocket 2.1 21:05:17 10° NNW 21:10:58 80° ENE 21:14:38 23° SSE
Envisat 3.0 21:14:26 26° SE 21:17:14 63° ENE 21:22:16 10° N
Cosmos 1515 3.6 21:14:41 10° N 21:18:33 77° E 21:20:00 36° SSE
H-2A R/B 4.0 21:19:51 12° ENE 21:20:03 12° ENE 21:21:41 10° NE
SJ-11-01 4.3 21:17:00 19° S 21:20:21 83° W 21:25:04 10° NNW
Cosmos 1937 Rocket 4.0 21:17:13 10° N 21:22:15 44° ENE 21:23:51 34° ESE
Cosmos 2173 Rocket 4.1 21:17:29 16° SSE 21:22:28 55° E 21:28:38 10° NNE
YAOGAN 6 3.9 21:24:04 27° ENE 21:24:04 27° ENE 21:26:48 10° NNE
ASTEX 1 4.0 21:20:59 10° NNE 21:25:34 35° E 21:25:57 35° E
OAO 2 Rocket 3.7 21:21:35 10° WSW 21:26:24 45° S 21:27:30 39° SE
Cosmos 1743 3.1 21:28:23 45° ENE 21:28:23 45° ENE 21:31:52 10° NNE
Cosmos 1825 Rocket 3.8 21:27:56 10° N 21:32:12 46° ENE 21:32:30 46° E
Iridium 4 Rocket 3.8 21:27:39 10° N 21:32:44 63° W 21:36:38 14° SSW
Cosmos 2100 Rocket 3.9 21:27:05 12° S 21:32:56 73° E 21:39:09 10° N
Cosmos 2150 Rocket 3.9 21:27:59 10° NNW 21:33:08 74° ENE 21:34:52 42° SE
Cosmos 1975 3.9 21:29:23 10° SSW 21:33:19 46° W 21:37:18 10° N
Cosmos 2061 Rocket 3.9 21:29:06 17° S 21:33:58 67° E 21:40:11 10° NNE
MetOp-A 4.2 21:36:23 42° ESE 21:37:51 56° ENE 21:43:06 10° N
Cosmos 990 Rocket 4.4 21:32:58 10° N 21:38:01 44° ENE 21:38:50 41° E
SPOT 1/Viking Rocket 4.2 21:37:52 35° E 21:38:29 37° ENE 21:43:14 10° N
DELTA 2 R/B (1) 3.5 21:34:08 10° W 21:39:40 70° SSW 21:41:10 47° SE
Cosmos 972 Rocket 4.4 21:34:37 10° NNW 21:40:32 73° ENE 21:43:06 38° SSE
Cosmos 1953 Rocket 4.1 21:36:56 10° N 21:40:55 42° ENE 21:40:55 42° ENE
Cosmos 1066 Rocket 4.2 21:36:46 10° N 21:42:26 83° W 21:45:23 30° S
H-2A R/B 1.8 21:43:39 69° SSE 21:44:08 87° ENE 21:48:17 10° NNW
Lacrosse 5 rocket 1.5 21:41:36 10° NW 21:45:08 51° SW 21:45:08 51° SW
BREEZE-M DEB (TANK) 3.7 21:30:27 10° WSW 21:45:28 89° SSE 21:48:15 27° ENE
BREEZE-M DEB (TANK) 2.9 21:45:07 10° NW 21:47:27 42° NNE 21:47:27 42° NNE
Cosmos 1697 Rocket 2.7 21:43:00 10° SSW 21:48:40 83° WNW 21:54:21 10° NNE
ERS-1 Rocket 3.8 21:47:45 20° SSW 21:50:54 46° W 21:55:45 10° NNW
SL-16 R/B 4.3 21:57:21 12° NE 21:57:21 12° NE 21:57:59 10° NE
deb Chang Zheng 4 3.8 21:49:28 10° N 21:53:57 73° WNW 21:55:42 36° SSW
NOAA 11 4.4 21:57:00 51° E 21:57:25 52° ENE 22:02:43 10° N
Cosmos 1898 Rocket 3.8 21:52:38 10° NNW 21:57:53 63° WSW 21:59:26 43° SSW
Cosmos 1758 Rocket 4.0 21:56:00 10° N 21:59:30 49° NE 21:59:30 49° NE
Cosmos 1763 Rocket 3.4 22:04:14 67° ENE 22:04:14 67° ENE 22:08:54 10° NNE
Cosmos 1939 Rocket 4.5 22:03:35 26° SW 22:04:56 32° W 22:08:41 10° NNW
Cosmos 1725 Rocket 3.9 22:07:24 59° ESE 22:07:49 60° E 22:13:56 10° NNE
Cosmos 1459 Rocket 4.3 22:05:51 17° SSW 22:10:35 61° W 22:16:38 10° N
Cosmos 1980 Rocket 2.1 22:08:25 37° SSW 22:10:47 89° WNW 22:16:32 10° NNE
Milstar 3 Cent rocket 4.1 21:53:42 10° W 22:11:33 47° SSW 22:14:46 38° SSE
Meteor 1-15 Rocket 4.4 22:12:45 57° ENE 22:12:45 57° ENE 22:18:07 10° NNE
ARGOS 3.1 22:12:24 70° ENE 22:12:26 70° ENE 22:17:48 10° N
Lacrosse 5 1.9 22:13:53 10° NW 22:18:37 78° NW 22:18:37 78° NW
Cosmos 2084 4.5 22:15:46 10° NW 22:18:57 40° W 22:18:57 40° W
Cosmos 2058 Rocket 3.9 22:21:52 45° N 22:21:52 45° N 22:25:04 10° N
SPOT 5 3.6 22:20:37 45° SW 22:21:24 50° W 22:26:10 10° NNW
Tiangong 1 4.1 22:19:40 10° WNW 22:20:22 15° WNW 22:20:22 15° WNW
Cosmos 841 Rocket 3.5 22:25:05 73° N 22:25:05 73° N 22:29:50 10° NNE
USA 215 3.4 22:32:14 54° ENE 22:33:14 60° NE 22:39:40 10° NW
RESURS DK-1 4.0 22:31:28 10° NW 22:34:13 32° WNW 22:34:13 32° WNW
Cosmos 2233 Rocket 4.3 22:36:30 53° NE 22:36:30 53° NE 22:41:33 10° NNE
Cosmos 2263 Rocket 3.5 22:35:59 10° N 22:39:56 29° NE 22:39:56 29° NE
Cosmos 2322 Rocket 3.5 22:45:09 29° NE 22:45:09 29° NE 22:47:50 10° NNE
H-2A R/B 3.0 23:00:30 42° NNW 23:00:30 42° NNW 23:03:46 10° NNW
Terra 3.3 23:02:30 34° N 23:02:30 34° N 23:05:11 10° NNW
SL-16 R/B 3.5 23:39:10 36° NNW 23:39:10 36° NNW 23:42:51 10° NNE
